| time (UTC) | temp F | wind direction | speed knots | gust knots | rain 1hr in | rain 24hr in | rain mn in | humidity % | barometer mb |
| 20260504100403 | 47 | 234 | 2.6 | 2.6 | 0.00 | 0.00 | 0.00 | 60 | 1011.0 |
| 20260504045915 | 42 | 98 | 1.7 | 2.6 | 0.00 | 0.00 | 0.00 | 73 | 1011.6 |
| 20260504044403 | 42 | 98 | 1.7 | 2.6 | 0.00 | 0.00 | 0.00 | 71 | 1011.7 |
| 20260504043914 | 42 | 98 | 0.9 | 2.6 | 0.00 | 0.00 | 0.00 | 70 | 1011.7 |
| 20260504043426 | 42 | 98 | 1.7 | 2.6 | 0.00 | 0.00 | 0.00 | 70 | 1011.7 |
| 20260504031903 | 42 | 274 | 1.7 | 2.6 | 0.00 | 0.00 | 0.00 | 66 | 1011.3 |
| 20260504031404 | 42 | 274 | 0.9 | 1.7 | 0.00 | 0.00 | 0.00 | 66 | 1011.4 |
| 20260504023903 | 44 | 274 | 0.9 | 2.6 | 0.00 | 0.00 | 0.00 | 58 | 1011.1 |
| 20260504023406 | 45 | 274 | 0.9 | 1.7 | 0.00 | 0.00 | 0.00 | 56 | 1011.2 |
| 20260504022903 | 45 | 274 | 0.9 | 0.9 | 0.00 | 0.00 | 0.00 | 56 | 1011.2 |
| 20260504022404 | 45 | 274 | 0.9 | 0.9 | 0.00 | 0.00 | 0.00 | 53 | 1011.3 |
| 20260504021903 | 45 | 274 | 0.9 | 0.9 | 0.00 | 0.00 | 0.00 | 54 | 1011.3 |
| 20260504020403 | 46 | 274 | 0.0 | 1.7 | 0.00 | 0.00 | 0.00 | 53 | 1011.4 |
| 20260504015903 | 46 | 274 | 0.0 | 0.0 | 0.00 | 0.00 | 0.00 | 52 | 1011.4 |
| 20260504015403 | 47 | 274 | 0.0 | 0.0 | 0.00 | 0.00 | 0.00 | 51 | 1011.4 |
| 20260503233428 | 53 | 335 | 1.7 | 6.1 | 0.00 | 0.00 | 0.00 | 37 | 1009.8 |
| 20260503213903 | 56 | 14 | 3.5 | 8.7 | 0.00 | 0.00 | 0.00 | 31 | 1009.3 |
| 20260503205403 | 56 | 281 | 4.3 | 7.0 | 0.00 | 0.00 | 0.00 | 35 | 1009.2 |
| 20260503204903 | 56 | 328 | 1.7 | 7.0 | 0.00 | 0.00 | 0.00 | 37 | 1009.2 |
| 20260503193904 | 53 | 352 | 2.6 | 8.7 | 0.00 | 0.00 | 0.00 | 42 | 1010.1 |
| 20260503193405 | 53 | 273 | 5.2 | 12.2 | 0.00 | 0.00 | 0.00 | 40 | 1010.1 |
| 20260503192903 | 53 | 299 | 6.1 | 10.4 | 0.00 | 0.00 | 0.00 | 39 | 1010.2 |
| 20260503192405 | 53 | 280 | 4.3 | 10.4 | 0.00 | 0.00 | 0.00 | 42 | 1010.2 |
| 20260503191903 | 53 | 286 | 4.3 | 6.1 | 0.00 | 0.00 | 0.00 | 43 | 1010.2 |
| 20260503191403 | 52 | 276 | 3.5 | 10.4 | 0.00 | 0.00 | 0.00 | 44 | 1010.3 |
| 20260503190404 | 51 | 27 | 1.7 | 7.0 | 0.00 | 0.00 | 0.00 | 44 | 1010.3 |
| 20260503185904 | 51 | 257 | 1.7 | 7.8 | 0.00 | 0.00 | 0.00 | 43 | 1010.4 |
| 20260503184904 | 50 | 291 | 3.5 | 7.8 | 0.00 | 0.00 | 0.00 | 43 | 1010.7 |
| 20260503184403 | 50 | 337 | 4.3 | 13.0 | 0.00 | 0.00 | 0.00 | 44 | 1010.7 |
| 20260503183405 | 50 | 319 | 2.6 | 7.8 | 0.00 | 0.00 | 0.00 | 47 | 1010.7 |
| 20260503182404 | 50 | 305 | 3.5 | 7.8 | 0.00 | 0.00 | 0.00 | 44 | 1010.7 |
| 20260503181904 | 50 | 314 | 3.5 | 8.7 | 0.00 | 0.00 | 0.00 | 44 | 1010.7 |
| 20260503181403 | 50 | 335 | 2.6 | 7.0 | 0.00 | 0.00 | 0.00 | 44 | 1010.8 |
| 20260503180904 | 50 | 289 | 4.3 | 10.4 | 0.00 | 0.00 | 0.00 | 41 | 1010.8 |
| 20260503180403 | 50 | 9 | 2.6 | 11.3 | 0.00 | 0.00 | 0.00 | 42 | 1010.7 |
| 20260503175905 | 50 | 309 | 6.1 | 13.9 | 0.00 | 0.00 | 0.00 | 42 | 1010.6 |
| 20260503174903 | 49 | 285 | 7.0 | 10.4 | 0.00 | 0.00 | 0.00 | 42 | 1010.8 |
| 20260503174405 | 49 | 288 | 7.8 | 15.6 | 0.00 | 0.00 | 0.00 | 41 | 1010.7 |
| 20260503172904 | 49 | 295 | 5.2 | 10.4 | 0.00 | 0.00 | 0.00 | 43 | 1010.8 |
| 20260503172404 | 49 | 299 | 5.2 | 14.8 | 0.00 | 0.00 | 0.00 | 44 | 1010.8 |
| 20260503171903 | 49 | 294 | 5.2 | 12.2 | 0.00 | 0.00 | 0.00 | 44 | 1010.8 |
| 20260503171403 | 49 | 286 | 7.8 | 13.0 | 0.00 | 0.00 | 0.00 | 44 | 1010.8 |
| 20260503170903 | 49 | 346 | 4.3 | 13.0 | 0.00 | 0.00 | 0.00 | 45 | 1010.8 |
| 20260503170405 | 49 | 297 | 7.8 | 10.4 | 0.00 | 0.00 | 0.00 | 43 | 1010.8 |
| 20260503150903 | 48 | 299 | 3.5 | 8.7 | 0.00 | 0.00 | 0.00 | 52 | 1011.0 |
| 20260503131403 | 44 | 278 | 2.6 | 5.2 | 0.00 | 0.00 | 0.00 | 71 | 1011.8 |
| 20260503130403 | 44 | 283 | 1.7 | 2.6 | 0.00 | 0.00 | 0.00 | 73 | 1011.7 |